Silver City, NM

8:11 AM MDT on August 22, 2017 (GMT -0600)
Grant County

Weather History for KSVC - October, 2012

Change the Weather History Date:

Tuesday, October 30, 2012

  Actual Average (KDMN) Record (KDMN)
Temperature  
Mean Temperature 58 °F -  
Max Temperature 75 °F 73 °F 86 °F (2010)
Min Temperature 41 °F 37 °F 26 °F (1967)
Degree Days  
Heating Degree Days 7    
Growing Degree Days 8 (Base 50)    
Moisture  
Dew Point 11 °F    
Average Humidity 17    
Maximum Humidity 31    
Minimum Humidity 7    
Precipitation  
Precipitation 0.00 in - - ()
Sea Level Pressure  
Sea Level Pressure 30.20 in    
Wind  
Wind Speed 11 mph (NW)    
Max Wind Speed 18 mph    
Max Gust Speed 28 mph    
Visibility 10 miles    
Events      
Averages and records for this station are not official NWS values.
T = Trace of Precipitation, MM = Missing Value Source: NWS Daily Summary

Daily Weather History Graph

Daily Weather History Graph

Search for Another Location

Airport or City:

Trip Planner

Search our weather history database for the weather conditions in past years. The results will help you decide how hot, cold, wet, or windy it might be!

Date:

Astronomy

Oct. 30, 2012 Rise Set
Actual Time 7:28 AM MDT 6:23 PM MDT
Civil Twilight 7:03 AM MDT 6:48 PM MDT
Nautical Twilight 6:34 AM MDT 7:17 PM MDT
Astronomical Twilight 6:05 AM MDT 7:46 PM MDT
Moon 6:59 PM MDT (10/30) 8:14 AM MDT (10/30)
Length of Visible Light 11h 44m
Length of Day
10h 54m
Full, 99% of the Moon is Illuminated
Oct 30
Full
Nov 6
Last Quarter
Nov 13
New
Nov 20
First Quarter
Nov 28
Full

Hourly Weather History & Observations

Time (MDT) Temp. Windchill Dew Point Humidity Pressure Visibility Wind Dir Wind Speed Gust Speed Precip Events Conditions
12:15 AM 48.2 °F - 14.0 °F 25% 30.23 in 10.0 mi North 11.5 mph - N/A   Clear
12:35 AM 48.2 °F - 14.0 °F 25% 30.23 in 10.0 mi North 9.2 mph - N/A   Clear
12:55 AM 46.4 °F 41.9 °F 14.0 °F 27% 30.23 in 10.0 mi North 9.2 mph - N/A   Clear
1:15 AM 48.2 °F - 14.0 °F 25% 30.22 in 10.0 mi North 8.1 mph - N/A   Clear
1:35 AM 46.4 °F 41.1 °F 14.0 °F 27% 30.22 in 10.0 mi NNW 11.5 mph - N/A   Clear
1:55 AM 46.4 °F 41.1 °F 14.0 °F 27% 30.22 in 10.0 mi NNW 11.5 mph - N/A   Clear
2:15 AM 46.4 °F 41.1 °F 14.0 °F 27% 30.22 in 10.0 mi North 11.5 mph - N/A   Clear
2:35 AM 46.4 °F 41.5 °F 14.0 °F 27% 30.22 in 10.0 mi North 10.4 mph - N/A   Clear
2:55 AM 46.4 °F 42.9 °F 14.0 °F 27% 30.22 in 10.0 mi NW 6.9 mph - N/A   Clear
3:15 AM 44.6 °F 38.8 °F 14.0 °F 29% 30.22 in 10.0 mi NNW 11.5 mph - N/A   Clear
3:35 AM 44.6 °F 39.2 °F 14.0 °F 29% 30.21 in 10.0 mi NNW 10.4 mph - N/A   Clear
4:15 AM 44.6 °F 39.2 °F 14.0 °F 29% 30.21 in 10.0 mi North 10.4 mph - N/A   Clear
4:35 AM 44.6 °F 39.7 °F 12.2 °F 27% 30.21 in 10.0 mi NNW 9.2 mph - N/A   Clear
4:55 AM 41.0 °F 33.5 °F 12.2 °F 31% 30.21 in 10.0 mi NNW 13.8 mph - N/A   Clear
5:15 AM 48.2 °F - 14.0 °F 25% 30.21 in 10.0 mi NNW 11.5 mph - N/A   Clear
5:35 AM 50.0 °F - 15.8 °F 26% 30.21 in 10.0 mi NW 12.7 mph - N/A   Clear
5:55 AM 48.2 °F - 15.8 °F 27% 30.22 in 10.0 mi NW 12.7 mph - N/A   Clear
6:55 AM 48.2 °F - 14.0 °F 25% 30.22 in 10.0 mi NW 12.7 mph - N/A   Clear
7:15 AM 48.2 °F - 14.0 °F 25% 30.22 in 10.0 mi NNW 12.7 mph - N/A   Clear
7:35 AM 46.4 °F 41.5 °F 14.0 °F 27% 30.23 in 10.0 mi NNW 10.4 mph - N/A   Clear
7:55 AM 44.6 °F 40.2 °F 12.2 °F 27% 30.24 in 10.0 mi North 8.1 mph - N/A   Clear
8:15 AM 46.4 °F 41.5 °F 12.2 °F 25% 30.24 in 10.0 mi North 10.4 mph - N/A   Clear
8:35 AM 53.6 °F - 14.0 °F 21% 30.25 in 10.0 mi NNW 11.5 mph - N/A   Clear
8:55 AM 57.2 °F - 14.0 °F 18% 30.25 in 10.0 mi NW 11.5 mph - N/A   Clear
9:15 AM 59.0 °F - 14.0 °F 17% 30.26 in 10.0 mi NW 11.5 mph - N/A   Clear
9:35 AM 62.6 °F - 12.2 °F 14% 30.26 in 10.0 mi NW 10.4 mph - N/A   Clear
9:55 AM 64.4 °F - 12.2 °F 13% 30.26 in 10.0 mi WNW 9.2 mph - N/A   Clear
10:15 AM 66.2 °F - 12.2 °F 12% 30.26 in 10.0 mi WNW 6.9 mph - N/A   Clear
10:35 AM 68.0 °F - 10.4 °F 11% 30.26 in 10.0 mi West 5.8 mph - N/A   Clear
10:55 AM 69.8 °F - 10.4 °F 10% 30.26 in 10.0 mi West 6.9 mph - N/A   Clear
11:15 AM 71.6 °F - 10.4 °F 9% 30.26 in 10.0 mi West 5.8 mph - N/A   Clear
11:35 AM 71.6 °F - 10.4 °F 9% 30.25 in 10.0 mi WNW 5.8 mph - N/A   Clear
11:55 AM 73.4 °F - 10.4 °F 9% 30.24 in 10.0 mi WNW 10.4 mph - N/A   Clear
12:15 PM 73.4 °F - 10.4 °F 9% 30.23 in 10.0 mi West 5.8 mph - N/A   Clear
12:35 PM 73.4 °F - 10.4 °F 9% 30.23 in 10.0 mi WNW 10.4 mph 21.9 mph N/A   Clear
12:55 PM 73.4 °F - 10.4 °F 9% 30.21 in 10.0 mi WNW 11.5 mph 16.1 mph N/A   Clear
1:15 PM 73.4 °F - 8.6 °F 8% 30.20 in 10.0 mi West 10.4 mph 16.1 mph N/A   Clear
1:35 PM 75.2 °F - 8.6 °F 8% 30.20 in 10.0 mi West 12.7 mph 21.9 mph N/A   Clear
1:55 PM 75.2 °F - 6.8 °F 7% 30.18 in 10.0 mi WNW 17.3 mph 20.7 mph N/A   Clear
2:15 PM 75.2 °F - 6.8 °F 7% 30.17 in 10.0 mi West 15.0 mph - N/A   Clear
2:35 PM 75.2 °F - 6.8 °F 7% 30.16 in 10.0 mi WNW 13.8 mph 19.6 mph N/A   Clear
2:55 PM 75.2 °F - 6.8 °F 7% 30.16 in 10.0 mi WNW 16.1 mph - N/A   Clear
3:15 PM 75.2 °F - 5.0 °F 7% 30.15 in 10.0 mi NW 13.8 mph 18.4 mph N/A   Clear
3:35 PM 75.2 °F - 6.8 °F 7% 30.15 in 10.0 mi WNW 11.5 mph 27.6 mph N/A   Clear
3:55 PM 75.2 °F - 6.8 °F 7% 30.15 in 10.0 mi NW 13.8 mph 23.0 mph N/A   Clear
4:15 PM 75.2 °F - 6.8 °F 7% 30.14 in 10.0 mi WNW 13.8 mph - N/A   Clear
4:35 PM 75.2 °F - 6.8 °F 7% 30.14 in 10.0 mi WNW 15.0 mph 20.7 mph N/A   Clear
4:55 PM 75.2 °F - 8.6 °F 8% 30.14 in 10.0 mi WNW 15.0 mph - N/A   Clear
5:15 PM 73.4 °F - 8.6 °F 8% 30.14 in 10.0 mi WNW 18.4 mph - N/A   Clear
5:35 PM 73.4 °F - 8.6 °F 8% 30.14 in 10.0 mi West 16.1 mph 20.7 mph N/A   Clear
5:55 PM 71.6 °F - 8.6 °F 9% 30.14 in 10.0 mi WNW 15.0 mph - N/A   Clear
6:15 PM 69.8 °F - 8.6 °F 9% 30.14 in 10.0 mi WNW 12.7 mph - N/A   Clear
6:55 PM 60.8 °F - 8.6 °F 13% 30.15 in 10.0 mi NW 8.1 mph - N/A   Clear
7:35 PM 55.4 °F - 6.8 °F 14% 30.16 in 10.0 mi NNW 8.1 mph - N/A   Clear
7:55 PM 55.4 °F - 6.8 °F 14% 30.16 in 10.0 mi NNW 9.2 mph - N/A   Clear
8:15 PM 57.2 °F - 6.8 °F 13% 30.16 in 10.0 mi North 10.4 mph - N/A   Clear
8:55 PM 53.6 °F - 6.8 °F 15% 30.17 in 10.0 mi NNW 12.7 mph - N/A   Clear
9:35 PM 50.0 °F - 8.6 °F 19% 30.18 in 10.0 mi North 9.2 mph - N/A   Clear
9:55 PM 50.0 °F - 8.6 °F 19% 30.18 in 10.0 mi North 10.4 mph - N/A   Clear
10:15 PM 48.2 °F - 8.6 °F 20% 30.19 in 10.0 mi North 9.2 mph - N/A   Clear
10:35 PM 48.2 °F - 8.6 °F 20% 30.19 in 10.0 mi North 10.4 mph - N/A   Clear
10:55 PM 48.2 °F - 8.6 °F 20% 30.18 in 10.0 mi NNW 9.2 mph - N/A   Clear
11:15 PM 44.6 °F 39.2 °F 8.6 °F 23% 30.18 in 10.0 mi NNW 10.4 mph - N/A   Clear
11:35 PM 50.0 °F - 8.6 °F 19% 30.18 in 10.0 mi NW 10.4 mph - N/A   Clear
11:55 PM 48.2 °F - 8.6 °F 20% 30.19 in 10.0 mi NW 9.2 mph - N/A   Clear